Tracking 30918 objects as of 2-Jul-2025
HD Live streaming from Space Station
objects crossing your sky now

BREEZE-M DEB

Track BREEZE-M DEB now!
10-day predictions


NORAD ID: 38568
Int'l Code: 2008-011P
Perigee: 621.5 km
Apogee: 22,218.1 km
Inclination: 50.4 °
Period: 393.6 minutes
Semi major axis: 17790 km
RCS: 0.1545 m2 (medium)
Launch date: March 14, 2008
Source: Commonwealth of Independent States (former USSR) (CIS)
Launch site: TYURATAM MISSILE AND SPACE COMPLEX (TTMTR)

Note: This is SATELLITE DEBRIS
Your satellite tracking list
Your tracking list is empty




NASA's NSSDC Master Catalog

Two Line Element Set (TLE):
1 38568U 08011P   25182.73337180  .00003729  00000-0  26176-1 0  9994
2 38568  50.3598 306.8460 6069585 233.3699  54.4429  3.65856014162198
Source of the keplerian elements: AFSPC